This is the latest recevied weather packets stored in our database for station/object HA3YA-WX. If no packets are shown the sender has not sent any weather packets the latest 10 day(s).
| Time | Temp. | Humidity | Pressure | Rain* | Wind** | Luminosity | Snow |
|---|---|---|---|---|---|---|---|
| 1777267892 | 7.22° C | 47% | 1011.7 hPa | - | - | - | - |
| 1777267293 | 6.67° C | 47% | 1011.7 hPa | - | - | - | - |
| 1777266693 | 6.11° C | 47% | 1011.7 hPa | - | - | - | - |
| 1777266092 | 5.56° C | 47% | 1011 hPa | - | - | - | - |
| 1777265492 | 5° C | 47% | 1011 hPa | - | - | - | - |
| 1777264892 | 4.44° C | 47% | 1011 hPa | - | - | - | - |
| 1777264292 | 4.44° C | 47% | 1011 hPa | - | - | - | - |
| 1777263692 | 4.44° C | 46% | 1011.3 hPa | - | - | - | - |
| 1777263093 | 4.44° C | 46% | 1011.3 hPa | - | - | - | - |
| 1777262492 | 4.44° C | 46% | 1011.1 hPa | - | - | - | - |
| 1777261892 | 4.44° C | 45% | 1011.1 hPa | - | - | - | - |
| 1777261292 | 4.44° C | 45% | 1011.1 hPa | - | - | - | - |
| 1777260692 | 4.44° C | 45% | 1011.1 hPa | - | - | - | - |
| 1777260092 | 4.44° C | 45% | 1011.1 hPa | - | - | - | - |
| 1777259492 | 4.44° C | 44% | 1011.2 hPa | - | - | - | - |
| 1777258896 | 5° C | 44% | 1011.2 hPa | - | - | - | - |
| 1777258292 | 5° C | 44% | 1011.2 hPa | - | - | - | - |
| 1777257692 | 5° C | 43% | 1011.2 hPa | - | - | - | - |
| 1777257092 | 5.56° C | 43% | 1011.2 hPa | - | - | - | - |
| 1777256493 | 5.56° C | 43% | 1011.2 hPa | - | - | - | - |
| 1777255892 | 5.56° C | 43% | 1011 hPa | - | - | - | - |
| 1777255292 | 6.11° C | 43% | 1011 hPa | - | - | - | - |
| 1777254692 | 6.11° C | 42% | 1011 hPa | - | - | - | - |
| 1777254093 | 6.67° C | 42% | 1011 hPa | - | - | - | - |
| 1777253492 | 6.67° C | 42% | 1011 hPa | - | - | - | - |
* Rain since midnight (hover to see other rain measurements)
** Current wind speed in m/s (hover to see current wind gust speed)